Theta_e
311 312 310 306 300 300 311 320 323 317 317 319 320 320 319 314 317 316 317 317 318 318 319 318 319 319 318 315 314 315 316 319 319 316 309 308 311 314 316 320 323 318 319 321
315 311 309 306 300 301 316 320 319 315 316 320 320 319 319 317 318 318 317 318 318 318 319 320 319 319 314 314 315 316 315 318 321 318 313 310 312 313 313 315 317 320 324 326
315 310 309 305 300 302 312 319 321 320 317 319 320 320 319 318 317 318 318 319 318 318 319 319 320 319 314 313 315 309 314 319 320 323 321 318 315 314 312 315 319 321 322 321
316 313 308 305 301 300 307 319 317 320 321 319 319 319 318 318 318 317 317 318 319 319 320 319 319 319 315 312 314 313 316 319 319 318 317 316 317 317 315 314 316 319 320 320
314 314 307 305 301 301 308 320 319 320 322 319 319 317 318 318 318 317 318 318 319 319 320 320 320 320 319 319 315 315 315 319 317 318 317 316 316 316 317 317 315 315 317 318
314 314 309 307 303 301 310 318 316 319 321 321 320 320 317 318 317 317 317 318 319 319 319 319 318 319 319 320 318 317 317 318 318 321 316 316 318 319 319 317 317 318 318 320
315 314 313 308 304 301 312 317 317 319 324 322 321 319 318 318 317 318 317 317 318 318 317 316 316 317 317 318 318 318 318 319 321 322 318 323 323 316 315 317 318 318 317 317
316 315 314 311 307 302 307 315 317 319 322 320 321 321 321 319 318 318 318 317 317 316 317 319 319 319 318 318 317 316 317 319 329 324 322 322 321 321 316 316 321 320 318 319
316 315 314 313 310 305 303 309 314 316 318 320 319 321 321 321 320 319 318 312 314 316 320 323 324 326 322 322 317 312 314 316 323 322 325 327 324 316 315 316 320 322 321 320
317 316 316 314 313 308 303 303 310 316 318 315 316 320 320 320 321 321 319 314 314 316 325 327 326 324 322 323 322 316 316 319 324 324 327 324 322 315 315 322 326 320 318 318
318 317 317 316 314 312 306 303 302 315 321 314 313 315 317 319 321 322 318 317 316 318 327 325 323 323 321 321 322 319 321 324 323 323 327 326 321 314 318 322 322 319 317 318
313 314 317 317 316 314 310 305 303 306 313 314 310 310 311 314 316 318 315 320 318 319 322 323 323 323 322 322 324 319 322 324 326 325 325 321 316 320 316 318 321 320 318 317
314 314 314 316 317 315 312 308 306 303 306 308 308 308 308 309 310 312 317 317 318 318 319 322 327 326 322 324 324 323 318 320 322 323 323 321 317 317 318 317 317 318 317 316
314 314 315 317 315 315 314 310 305 304 310 312 309 305 307 308 309 312 311 311 312 315 317 326 327 327 322 324 324 325 324 321 319 319 320 320 318 316 317 317 317 316 315 315
315 314 312 312 315 313 311 308 305 305 309 310 313 307 305 304 308 310 311 310 312 315 319 321 323 319 320 319 319 321 323 322 321 323 322 321 322 321 320 318 317 316 316 318
313 313 312 312 314 311 307 306 304 304 309 309 313 306 306 304 304 307 311 312 311 314 316 316 317 315 315 322 323 321 321 320 319 320 319 319 318 318 318 318 318 318 318 319
311 312 313 312 313 310 309 308 309 306 310 305 305 308 305 303 303 305 307 308 309 312 313 313 314 314 313 312 318 319 321 320 320 319 318 318 318 317 317 319 319 319 319 318
309 313 312 311 312 310 309 309 309 306 304 303 304 305 308 305 306 307 307 307 308 308 310 310 313 313 313 313 316 315 315 316 316 317 317 319 318 318 318 318 318 318 317 316
308 309 311 310 306 305 307 310 306 306 304 302 301 310 313 307 308 308 308 308 307 307 308 310 311 312 312 315 315 315 315 316 316 317 317 317 317 317 316 316 316 316 316 316
307 306 302 303 303 303 304 303 298 297 296 299 308 311 310 308 307 308 308 307 308 307 307 309 311 311 312 314 314 314 315 315 315 316 317 316 316 316 315 315 314 314 314 314
304 295 296 299 300 300 297 299 301 299 301 298 308 311 307 305 309 309 308 306 306 311 312 311 310 313 314 314 314 314 314 314 315 315 315 315 314 314 314 313 312 312 312 312
301 299 298 299 295 297 301 303 300 303 306 303 307 309 308 305 307 308 304 307 305 313 308 310 314 314 313 313 313 313 313 313 313 313 312 312 312 312 311 311 310 310 309 309
300 296 297 298 298 303 304 304 304 306 304 303 302 304 302 301 305 306 304 308 310 306 308 312 312 313 309 309 309 309 309 309 307 307 307 307 306 305 304 304 304 304 304 304
299 301 301 304 301 303 304 304 305 302 304 303 305 304 305 302 304 303 308 306 305 310 311 310 311 311 309 308 308 307 306 304 303 303 302 302 302 303 302 302 302 302 302 302
300 299 305 303 304 301 303 300 299 299 302 305 304 304 304 304 305 304 306 307 310 309 310 310 308 305 305 304 303 303 302 302 302 302 302 302 302 302 302 302 302 302 302 302
299 298 303 301 302 300 299 300 301 301 304 305 305 305 306 307 307 307 308 308 309 310 308 307 305 304 303 302 302 301 301 301 302 302 302 302 302 302 302 302 301 302 302 302
300 301 301 302 303 304 301 300 300 301 304 306 304 307 307 305 307 307 307 308 308 307 306 305 304 304 303 302 302 301 301 302 302 302 302 302 301 302 302 302 303 303 302 302
Wind_Speed
31 28 25 23 20 18 18 11 5 10 15 9 11 14 13 2 9 9 6 4 4 10 10 10 10 7 2 6 10 7 3 2 3 2 2 3 4 4 5 3 2 2 4 7
30 31 28 26 25 27 13 6 3 7 15 10 12 8 7 3 8 11 9 9 8 4 9 7 9 6 2 6 8 7 7 5 3 4 3 2 4 6 7 1 1 7 4 4
34 33 31 30 28 29 6 6 6 5 7 10 14 18 14 12 10 7 7 5 7 8 8 5 8 8 3 5 6 1 4 4 7 5 4 2 4 8 10 10 5 7 13 21
39 35 34 33 30 29 9 4 6 10 10 16 14 17 11 18 10 8 12 7 13 12 8 10 7 9 6 4 5 5 4 6 9 10 7 9 12 12 14 17 18 12 22 19
42 40 39 36 33 28 11 3 4 3 7 20 22 14 16 18 20 14 11 14 15 14 11 9 9 12 9 6 9 8 5 3 2 9 9 10 17 17 17 19 21 22 24 26
44 42 42 40 39 35 10 10 3 3 7 16 17 19 19 20 17 14 12 17 11 16 17 3 2 5 2 5 9 13 7 5 3 3 2 3 10 17 18 12 14 17 17 17
47 45 45 45 45 46 14 8 5 4 5 13 17 19 24 17 22 11 15 8 17 4 10 11 5 4 2 6 7 9 8 10 4 3 1 6 1 2 2 9 13 16 18 18
50 48 47 49 49 47 20 9 6 4 4 12 13 17 13 19 13 14 9 11 2 13 13 5 5 4 4 9 10 8 8 9 3 4 9 11 13 6 7 9 11 14 20 17
52 50 48 49 51 46 39 12 8 3 4 9 13 13 13 12 14 11 6 3 7 12 5 5 9 8 7 7 6 4 8 8 7 6 5 7 4 5 5 5 10 15 10 11
51 51 50 51 50 51 44 19 16 4 4 5 13 14 14 10 13 8 10 8 6 6 5 5 6 8 5 9 9 8 6 7 13 12 9 8 8 10 7 6 7 9 11 9
39 53 51 51 52 51 49 29 27 10 3 3 8 7 7 9 11 9 9 7 5 5 8 7 6 7 9 7 7 9 11 11 7 8 7 12 15 11 9 7 2 8 10 10
24 28 51 56 54 53 50 20 23 24 4 2 4 11 9 3 5 6 13 4 13 8 7 7 5 6 6 10 9 10 7 11 7 12 8 1 21 12 18 2 7 9 9 9
27 26 32 58 57 56 55 33 19 19 7 6 7 7 14 16 12 3 6 5 6 6 2 5 4 6 8 9 13 12 12 12 8 11 13 15 15 18 14 12 15 15 11 12
32 28 9 46 57 56 56 36 24 23 3 4 5 10 7 6 15 8 2 3 6 2 2 2 4 4 7 10 12 12 14 12 13 17 16 13 10 13 16 18 16 15 16 16
37 26 15 10 36 53 48 31 32 29 5 5 2 2 5 4 8 15 11 6 4 3 3 4 5 6 6 6 5 13 13 16 11 12 8 13 16 12 13 15 17 16 16 16
34 26 25 20 7 45 23 2 19 31 8 3 2 4 1 1 6 11 9 13 3 1 3 3 3 0 2 2 14 22 16 15 16 18 16 18 18 18 21 20 18 20 22 22
16 27 28 25 27 33 4 5 6 39 18 3 2 2 2 3 4 2 2 3 2 2 2 3 1 2 3 1 16 20 13 11 14 14 14 20 22 18 20 20 21 23 26 27
7 32 30 32 31 23 18 13 9 35 10 2 4 2 2 10 3 3 1 2 2 0 1 2 2 1 3 5 26 16 18 19 24 23 23 23 23 23 24 23 22 23 20 18
16 10 24 19 6 4 10 23 31 21 6 6 3 7 5 7 3 3 3 2 2 2 4 4 5 4 7 16 23 25 26 26 30 23 22 22 22 22 21 21 21 20 18 18
22 10 6 3 5 32 33 7 2 2 1 1 4 4 4 7 4 2 4 2 3 4 5 3 4 4 20 22 22 23 21 19 19 20 22 20 20 18 20 19 17 16 15 15
3 3 2 5 8 4 3 3 3 3 4 4 5 9 6 2 4 4 3 4 3 3 4 7 4 5 18 23 23 23 24 21 21 22 22 21 21 18 16 16 16 15 16 15
12 16 10 4 3 2 4 3 3 3 5 5 5 6 5 5 2 3 3 4 3 4 6 3 4 9 17 13 12 11 13 16 17 18 18 18 16 13 13 13 13 15 18 19
11 5 3 3 1 3 5 7 3 4 6 6 5 5 4 3 2 3 3 6 5 5 5 4 7 7 3 1 2 3 7 6 6 7 8 9 9 10 10 10 15 16 17 18
3 4 5 2 4 4 4 5 3 3 3 8 7 4 3 2 3 3 5 3 4 4 5 7 7 8 3 4 7 7 5 2 4 4 4 5 6 7 11 11 12 14 15 17
2 2 4 5 3 2 5 5 5 4 8 8 4 3 2 2 3 3 3 5 4 6 6 5 2 2 2 3 3 2 2 1 1 1 4 6 9 9 12 15 14 15 17 18
3 1 3 2 5 5 5 6 4 7 8 5 3 3 2 3 2 3 5 5 7 4 4 2 3 4 3 3 2 2 2 1 3 4 5 8 10 10 14 18 19 19 17 17
5 3 4 8 4 5 4 7 6 7 7 3 4 7 5 3 3 4 5 6 2 3 4 2 2 3 3 3 2 3 3 2 2 5 8 10 12 13 15 13 18 19 20 20
Wind_Direction
218 214 214 208 198 184 172 189 204 161 166 189 208 220 216 39 185 196 212 259 240 195 187 197 202 204 120 151 154 172 163 298 213 75 119 323 304 300 269 289 177 258 277 275
216 213 210 207 199 184 169 188 129 174 185 205 206 198 216 244 195 198 188 203 214 185 185 197 201 186 72 158 175 167 176 202 202 185 182 190 235 207 235 249 291 244 276 256
213 213 208 205 204 190 215 158 164 158 211 243 230 208 216 211 218 229 209 195 176 178 198 185 180 172 141 180 188 3 181 222 256 282 8 111 195 207 218 218 227 251 235 280
212 210 208 203 203 199 205 227 200 178 189 214 214 212 210 207 186 221 207 200 215 193 197 188 201 164 139 169 169 194 218 243 239 259 269 253 263 255 209 221 235 251 273 281
211 209 203 202 198 195 218 212 179 192 198 200 203 205 214 212 204 177 201 225 202 210 219 201 200 184 179 180 177 193 198 240 226 260 236 257 276 265 252 241 235 254 264 275
209 208 204 200 196 185 193 221 277 246 168 189 191 207 214 207 206 204 219 204 203 211 221 218 4 175 223 141 169 189 183 212 218 266 125 258 266 264 238 226 237 234 243 254
209 208 206 201 199 195 203 188 209 231 190 198 199 203 209 209 204 199 204 215 202 140 111 106 114 110 120 189 197 194 193 200 179 268 169 246 265 221 246 241 246 226 252 264
209 209 207 204 204 200 206 194 204 225 207 203 214 203 215 211 209 232 189 196 194 149 152 144 165 178 195 214 201 199 216 182 189 224 221 286 305 247 180 190 270 218 236 254
210 208 208 206 207 203 205 215 204 252 245 217 199 201 196 186 194 182 164 104 186 172 174 180 201 194 195 169 185 228 212 257 214 189 232 240 87 129 157 157 269 248 226 220
211 211 210 209 209 205 201 214 204 232 228 216 202 188 193 196 182 190 163 156 161 219 188 189 205 218 186 183 192 169 179 202 215 227 244 254 239 158 166 211 267 166 185 199
206 214 215 212 212 208 198 210 210 199 224 183 219 217 183 185 195 161 141 138 194 180 197 199 200 230 197 235 192 174 172 167 189 208 224 254 191 140 207 219 177 204 208 224
221 218 212 214 212 210 202 210 207 211 249 11 199 237 236 242 248 241 176 210 159 178 191 204 211 201 201 202 228 189 223 209 187 202 209 25 169 205 215 270 262 234 236 228
226 234 231 209 210 208 202 201 177 183 215 258 235 215 231 232 227 205 180 222 219 189 244 191 234 230 181 215 230 232 217 239 235 248 223 237 211 237 251 251 250 256 248 262
217 214 235 211 203 204 200 194 185 182 136 219 223 213 200 211 221 218 245 50 86 53 151 186 192 218 202 238 254 228 231 195 218 248 256 279 256 242 254 259 259 259 262 260
202 205 205 213 205 197 186 189 187 189 172 178 175 101 217 220 206 210 208 205 184 168 168 204 219 244 253 231 279 248 229 224 223 240 227 237 261 265 244 250 253 261 265 274
207 200 201 206 169 172 150 113 200 194 189 116 156 337 32 101 192 208 206 207 165 122 164 220 243 256 108 249 245 243 242 246 246 262 269 278 290 283 284 280 277 284 288 286
208 198 194 172 167 171 160 173 180 186 166 101 86 280 81 119 101 74 89 119 116 146 205 236 241 89 110 232 255 240 259 258 268 279 285 267 260 263 267 269 272 277 277 275
202 187 185 184 176 167 174 188 154 158 101 88 145 204 243 178 145 129 135 113 112 146 205 5 243 67 137 242 250 265 265 274 271 265 264 272 283 282 275 276 278 272 268 274
169 138 151 168 157 151 168 179 157 160 129 167 164 156 188 169 126 117 133 148 150 140 200 196 168 169 221 230 247 249 250 245 254 268 271 272 271 274 276 277 275 274 275 276
159 143 67 72 53 123 117 100 69 36 66 104 174 179 157 164 157 136 126 160 184 188 213 178 214 243 246 240 241 249 250 252 259 260 263 265 266 268 272 273 272 271 276 280
85 74 84 134 123 77 51 128 167 145 171 182 184 189 132 228 156 136 192 163 164 206 186 194 202 250 244 239 238 247 257 259 260 262 266 267 271 277 280 282 281 279 278 275
136 112 109 110 66 92 121 158 144 201 197 176 165 159 119 148 166 125 162 161 154 219 137 196 239 246 256 269 255 250 245 248 251 255 262 268 271 276 277 280 284 284 287 288
108 79 111 151 142 128 178 170 180 201 173 163 157 122 116 134 200 105 153 179 195 123 177 218 240 277 2 37 75 234 240 240 271 285 292 296 297 297 291 291 289 291 289 284
75 156 139 208 160 205 196 179 146 76 114 146 148 115 137 134 150 137 169 167 135 199 211 228 238 244 270 220 229 235 245 309 300 298 301 292 289 292 291 285 288 291 288 291
149 136 163 186 180 97 173 109 122 139 154 135 107 78 106 140 148 196 130 162 211 215 225 217 85 53 202 217 194 212 171 173 288 306 299 298 301 302 303 305 305 301 297 295
99 175 159 235 163 160 180 167 133 150 144 110 91 117 150 182 174 173 210 183 219 230 221 230 186 184 165 147 133 109 89 319 309 313 310 305 304 309 309 307 304 300 294 289
173 211 235 198 243 185 178 164 152 158 153 152 151 167 179 106 177 216 202 214 266 156 208 191 169 175 162 148 157 177 185 243 300 319 317 314 310 308 305 300 304 304 300 295